Regional Weather Roundup
Issued by NWS Goodland, KS

Home | Current Version | Previous Version | Graphics & Text | Print | Product List | Glossary On
Versions: 1 2 3 4 5 6 7 8 9 10 11 12 13 14 15 16 17 18 19 20 21 22 23 24 25 26 27 28 29 30 31 32 33 34 35 36 37 38 39 40 41 42 43 44 45 46 47 48 49 50
000
ASUS43 KGLD 281559
RWRGLD

GOODLAND FORECAST AREA HOURLY WEATHER ROUNDUP
NATIONAL WEATHER SERVICE GOODLAND KS
1000 AM MDT THU AUG 28 2014

...OFFICIAL OBSERVATIONS...

CITY           SKY/WX    TMP DP  RH WIND       PRES   REMARKS
GOODLAND KS    MOSUNNY   72  61  68 NW14      30.03S
HILL CITY KS   CLOUDY    68  64  87 N9        29.95S
IMPERIAL NEB   MOSUNNY   70  62  76 N10       30.01R
MCCOOK NEB     SUNNY     74  64  71 W7        29.97S
AKRON CO       SUNNY     66  54  65 NW16G26   30.11R
BURLINGTON CO  SUNNY     71  54  54 N14       30.07R
LIMON CO       PTSUNNY   64  50  60 NW8       30.15R
$$

...UNOFFICIAL OBSERVATIONS...

CITY           SKY/WX    TMP DP  RH WIND       PRES   REMARKS
COLBY KS       SUNNY     73  63  68 NW9       30.01F
GOVE KS          N/A     67  32  27 CALM        N/A
NORTON KS      CLOUDY    68  61  77 W9        29.95S
SHARON SPRINGS   N/A     72  61  67 N9          N/A
WAKEENEY KS      N/A     67  63  88 MISG        N/A
KIT CARSON CO    N/A     71  53  52 MISG        N/A
YUMA CO          N/A     66  54  66 NW21        N/A
$$


USA.gov is the U.S. government's official web portal to all federal, state and local government web resources and services.